sat.trackr.live / text

‹ back to catalog

STARLINK-35875

NORAD 67111 · 2025-299K

PAYLOAD ACTIVE UNKNOWN

§ Identity

Operator
Country
US
Launch date
2025-12-15
Launch site
AFETR
Launch vehicle
Mass (kg)
RCS (m²)

Purposes: comms

External: N2YO · Heavens-Above · Gunter

§ Orbital elements

Epoch: 2026-05-25T04:00:03.998880Z

Period
94.27 min
Inclination
43.0003°
Eccentricity
0.0000844
Mean motion
15.27580978 rev/d
Perigee alt
482.5 km
Apogee alt
483.6 km
Semi-major
6,861.2 km
B*
2.1605e-4
RAAN
96.9220°
Arg perigee
252.9423°
Mean anomaly
130.5153°
Rev number
585

§ Raw data

STARLINK-358751 67111U 25299K   26145.16671295  .00005688  00000+0  21605-3 0  99912 67111  43.0003  96.9220 0000844 252.9423 130.5153 15.27580978  5857

JSON: /api/v1/satellites/67111 · /tle

For live sub-satellite position, see the globe view (requires WebGL).

§ Visibility from observer

Set your observer location to see the next 7 days of passes ≥ 10°. The values pass through the URL so the page stays shareable.

No JS? Fill the form by hand. The geolocation button needs JavaScript.